Dewpoint
60 55 46 44 41 39 42 34 21 24 22 18 12 8 9 8 0 -3 -2 4 3 8 26 22 26 17 11 12 22 36 53 50 53 52 55 61 62 61 65 66 66 67 68 69 71 73 73 74 74 74 74 74 74 74 74 74 74 73 73 73 73 73 73 73 72 72 72 72 72 72 71 71 71 71 71 70 69 69 69 69 67 66 67 67 67 67 67 67 67 67 67 68 69 69 67 66 67
46 45 45 45 43 40 35 31 21 15 20 14 9 6 3 -4 -0 -8 -6 -6 13 17 20 14 12 9 9 14 22 35 54 56 57 57 60 64 64 63 64 66 65 65 67 69 69 71 72 73 74 74 74 74 74 74 74 74 74 73 73 73 73 73 73 72 72 72 72 72 71 71 71 71 71 71 70 69 70 70 70 69 66 66 67 68 66 67 68 67 67 68 68 69 69 69 68 66 66
43 43 41 42 40 37 33 28 16 13 10 12 10 7 -1 -4 -8 -9 -5 3 7 8 13 12 5 5 6 16 26 25 53 56 56 58 60 65 64 65 65 65 65 65 67 68 68 69 72 73 74 74 74 74 74 74 74 74 74 73 73 73 73 73 73 72 72 72 71 71 71 71 71 70 70 69 70 70 71 70 69 69 66 67 67 67 67 68 68 68 68 69 69 69 69 69 69 68 66
51 49 51 33 28 29 30 28 21 11 5 2 -1 -5 -6 -7 2 2 3 4 5 6 6 5 2 24 21 21 46 51 51 54 56 59 60 61 64 64 64 65 67 65 67 66 67 68 71 73 74 74 75 74 74 74 74 74 73 73 73 73 73 73 73 72 72 72 71 71 71 70 70 70 70 70 71 71 70 70 69 69 69 68 68 68 68 68 69 69 70 69 69 69 69 69 69 68 67
48 49 46 35 21 25 20 18 19 10 -2 -5 -7 -4 -4 -4 0 2 3 5 6 5 1 0 7 25 40 52 54 52 53 54 55 58 59 64 66 65 64 65 65 65 65 65 65 68 72 74 74 74 74 74 74 74 73 73 73 73 73 73 73 73 73 72 72 72 71 71 70 70 70 70 70 71 71 70 70 69 69 69 70 69 69 69 69 70 70 70 69 69 69 68 69 68 68 68 68
42 44 42 33 29 30 29 22 12 8 4 -1 -5 -4 -5 0 5 6 4 5 4 6 5 5 6 27 43 56 58 57 58 56 59 59 63 65 66 65 65 66 65 63 63 64 64 70 71 74 74 74 74 74 74 73 73 73 73 73 73 73 73 73 73 72 72 72 71 71 70 70 71 70 70 71 72 71 70 68 69 69 69 69 69 70 71 71 70 69 69 69 68 68 69 69 68 68 68
36 35 30 27 29 31 28 22 12 7 5 3 -4 -9 4 4 7 6 4 5 5 8 6 5 6 28 54 56 58 58 60 58 58 61 65 66 66 65 65 64 64 63 63 64 65 68 71 73 73 73 74 74 73 73 73 73 73 73 73 73 73 73 73 72 72 71 71 71 71 71 71 71 72 72 72 71 69 69 69 69 69 69 71 71 71 70 69 70 70 70 69 69 69 68 68 68 68
35 31 24 17 18 21 15 13 11 7 -0 -5 -10 -2 5 7 12 10 9 11 7 14 9 10 17 26 52 50 57 59 59 61 62 65 66 67 66 66 66 64 63 63 63 65 66 67 74 73 73 73 73 73 73 73 73 73 73 73 73 73 73 73 72 72 72 72 72 71 71 71 71 71 71 72 72 71 70 69 69 69 69 71 71 71 70 70 70 70 70 69 69 68 69 69 68 68 68
29 29 29 20 11 11 11 4 1 -1 -1 -1 -3 11 27 5 13 17 13 15 14 12 10 16 16 25 48 58 58 59 61 63 64 67 67 67 67 67 67 64 62 64 64 65 66 70 71 73 73 73 73 73 73 73 72 73 73 73 73 73 73 73 73 72 72 72 72 71 71 71 70 70 71 71 71 71 70 70 69 70 70 71 71 70 70 70 69 69 69 69 68 68 68 68 68 68 69
24 27 26 23 19 13 8 8 5 -2 -4 -6 -1 4 6 14 14 19 19 14 19 22 15 11 19 47 55 57 59 61 62 64 64 66 68 68 67 67 69 67 66 64 64 67 68 68 70 73 73 73 73 73 73 72 72 73 73 73 73 73 73 73 72 72 72 72 71 71 71 71 71 71 71 71 71 70 70 70 70 70 71 71 71 70 70 69 69 69 69 69 68 68 68 68 68 68 68
22 21 24 22 18 5 6 8 9 2 -6 -4 -3 5 9 10 11 20 20 22 23 23 20 15 12 44 58 60 61 64 65 64 65 67 69 69 70 68 66 68 67 67 64 66 66 66 69 70 73 72 72 73 73 72 73 73 73 73 73 72 72 72 72 72 71 72 72 72 71 71 71 71 71 71 70 70 70 70 70 70 71 71 70 70 69 69 69 69 69 69 69 69 68 68 68 68 68
19 19 15 12 13 12 4 0 -1 -2 -10 -2 -3 8 10 10 15 17 15 19 24 19 20 16 10 54 56 58 60 63 65 66 67 67 67 69 68 68 67 66 66 66 67 66 67 67 68 70 70 72 73 73 72 73 73 73 72 72 72 72 72 72 72 72 71 72 72 72 71 71 71 71 71 71 71 71 70 71 71 71 71 70 70 69 69 69 69 70 69 69 69 69 69 68 69 69 69
22 19 14 5 3 3 4 2 -2 -0 -9 -6 -2 10 10 10 13 17 20 23 27 19 18 15 45 55 56 60 63 65 65 66 67 68 69 68 67 66 67 66 68 68 67 67 66 65 66 68 69 70 72 72 72 72 72 72 72 72 72 72 72 72 72 72 72 71 71 71 71 71 71 71 71 71 71 71 71 71 71 71 70 70 70 69 69 69 69 69 69 69 69 69 69 69 69 69 69
23 20 19 15 9 2 -2 -3 -4 -5 -11 -4 9 10 8 7 12 18 18 22 25 20 24 49 53 59 61 62 62 63 64 66 68 69 68 69 67 66 67 68 69 67 66 66 65 65 64 65 68 68 70 70 71 72 72 72 72 72 72 72 72 72 72 72 71 71 71 71 71 70 70 70 71 71 71 71 71 71 70 70 70 70 69 69 69 69 69 68 69 69 69 69 69 69 69 69 69
19 19 17 13 10 8 3 -2 -4 -8 -9 8 10 8 8 13 16 16 20 21 27 26 37 36 57 52 58 58 60 62 64 66 67 67 68 68 68 67 68 68 68 67 66 64 64 65 63 64 65 68 69 68 70 70 71 71 72 72 72 72 72 72 72 71 71 71 71 71 71 70 70 70 70 71 71 71 70 70 70 70 70 70 69 70 69 69 69 68 68 68 69 69 69 69 69 69 69
14 14 14 14 7 4 2 0 -3 -8 3 9 10 11 10 9 12 14 21 28 28 39 38 37 52 55 58 56 61 63 64 66 67 68 68 69 68 68 68 68 67 67 66 64 64 64 65 64 66 66 67 69 69 70 70 71 72 72 72 72 72 71 71 71 71 71 71 71 71 71 70 70 70 70 70 69 70 69 70 70 70 69 69 69 69 69 69 68 67 67 68 69 69 69 69 69 69
13 14 15 12 8 3 -2 -4 -7 -12 4 10 10 10 7 7 10 12 20 19 25 37 39 47 50 53 55 54 63 64 65 67 68 68 68 66 66 66 66 67 66 66 66 64 64 65 66 65 66 65 65 66 68 69 70 70 71 71 72 71 71 71 71 71 71 71 71 71 70 71 70 69 70 70 70 68 70 69 70 70 70 69 69 69 69 69 68 68 67 67 67 68 69 70 70 69 69
13 13 10 11 8 -0 -4 1 3 3 8 9 10 11 8 7 10 10 11 15 23 32 40 52 51 53 54 62 64 64 65 66 67 67 66 65 66 64 64 66 66 65 64 64 64 64 65 66 65 65 66 66 67 69 69 70 70 70 70 71 70 71 71 71 70 69 70 69 70 70 70 69 69 69 69 69 69 69 69 69 69 69 68 69 68 68 68 67 67 67 68 68 68 69 70 69 69
14 12 8 6 5 -0 1 5 3 1 8 9 10 9 9 6 8 9 7 5 24 28 36 51 56 55 58 63 64 64 65 67 68 67 66 65 64 64 65 66 66 65 63 63 65 63 69 70 64 65 65 67 67 68 69 70 70 69 70 70 69 70 70 70 69 68 68 68 68 69 70 72 69 69 70 69 69 69 69 69 69 68 68 68 68 68 67 67 67 67 67 69 69 69 69 69 67
11 13 7 4 5 5 6 7 3 5 7 6 6 8 8 7 6 8 7 7 9 24 35 53 51 58 60 63 62 64 65 65 67 67 66 65 64 64 65 66 65 65 65 67 65 68 69 69 69 70 69 69 70 68 69 69 69 68 69 68 69 69 69 68 68 67 68 67 68 70 71 70 70 71 69 69 69 68 68 69 69 68 68 68 68 67 67 67 67 67 68 67 68 66 65 66 64
7 9 9 5 4 6 6 8 6 8 8 6 7 8 5 5 6 9 9 9 7 7 11 40 53 56 59 60 62 64 64 65 65 66 66 65 66 65 65 65 64 65 65 68 66 68 68 68 69 69 68 69 69 69 69 68 68 67 67 67 68 67 68 67 67 68 67 68 69 70 70 69 70 70 69 69 68 69 68 68 68 67 67 67 68 66 66 63 67 64 63 65 64 62 62 64 66
6 5 4 6 6 4 8 7 8 10 9 8 6 2 0 3 7 8 8 9 12 37 56 56 58 61 60 61 62 64 64 64 65 65 66 66 66 65 65 65 66 66 68 66 66 68 67 68 69 68 69 69 69 70 69 69 68 68 69 68 67 67 67 69 71 70 70 70 69 69 69 69 70 70 68 68 68 68 68 67 67 66 65 66 67 65 63 63 63 61 59 60 61 61 61 66 65
6 8 7 4 3 6 7 9 10 9 9 6 3 2 3 6 8 7 6 5 8 57 57 57 59 61 61 62 62 64 64 64 65 65 65 66 66 65 66 64 64 64 65 66 65 67 67 68 68 68 68 69 69 70 69 69 68 69 68 68 69 68 68 67 68 70 70 70 69 69 69 68 69 70 68 67 68 67 66 65 65 64 64 64 64 65 62 62 60 61 61 60 60 61 60 62 64
5 5 5 3 4 5 8 6 6 7 7 5 3 3 3 7 6 5 4 6 8 52 56 55 59 61 61 61 63 64 64 64 65 66 66 66 66 65 65 65 64 64 66 66 66 67 67 67 68 68 68 69 69 69 68 68 69 70 67 69 68 69 68 68 68 69 69 70 69 69 69 69 68 68 68 70 66 64 64 64 64 64 63 62 63 64 64 62 63 67 65 63 63 62 60 63 60
2 3 5 5 5 9 8 8 9 9 6 4 5 6 6 6 5 4 3 7 8 54 53 52 54 60 59 62 63 64 64 65 65 67 66 64 65 67 64 64 65 66 66 66 67 67 68 67 68 68 68 68 68 68 67 68 69 69 69 69 67 68 68 68 68 69 69 69 68 68 68 69 68 68 68 69 71 71 70 67 66 66 66 64 66 67 65 64 64 63 63 64 64 64 63 63 61
2 1 2 2 2 4 8 9 8 7 5 5 5 5 4 3 3 3 3 5 7 54 54 58 61 58 59 61 64 65 64 65 66 65 66 66 67 66 64 63 65 65 66 66 67 67 67 67 67 68 68 67 67 68 68 69 69 69 69 69 69 69 68 69 68 69 68 68 68 68 68 69 68 68 70 70 69 68 67 68 68 68 68 68 66 67 67 70 68 69 67 65 59 65 62 63 64
8 2 1 1 2 3 3 4 7 7 5 6 6 5 3 2 1 1 3 3 4 53 55 56 58 57 57 61 63 64 65 65 66 67 67 67 66 66 66 65 65 66 67 66 67 66 67 67 67 68 68 69 68 67 68 68 69 68 68 69 69 68 68 68 68 69 68 68 68 68 68 68 69 69 70 68 68 68 67 66 67 67 67 68 68 68 69 69 69 68 71 70 70 66 67 64 62
1 6 8 10 9 5 3 3 7 8 8 8 6 2 3 1 -0 0 1 4 22 54 54 54 52 53 54 59 61 64 64 65 65 66 66 66 64 64 65 64 66 66 67 67 67 66 67 67 67 67 68 69 68 67 67 67 68 68 68 70 69 68 69 68 68 69 69 69 68 69 69 69 69 69 69 68 67 67 67 67 67 68 69 67 68 68 68 69 68 69 70 70 70 68 66 67 64
2 3 5 8 8 6 6 4 5 8 7 4 2 1 -0 -2 -3 -0 2 1 17 23 47 54 50 51 53 57 62 63 63 64 64 64 65 65 65 65 65 66 66 67 68 67 68 67 67 66 66 67 67 68 68 67 67 66 67 67 67 69 69 68 68 67 68 68 68 68 69 68 69 67 68 68 69 68 68 67 67 68 69 69 68 69 70 67 67 67 69 69 69 68 69 67 69 66 62
2 4 4 3 1 -0 1 1 2 4 5 3 -1 1 -0 -2 -3 -1 1 1 21 24 38 37 53 52 54 56 61 62 63 64 64 63 63 64 65 65 66 67 68 68 66 67 66 67 66 67 67 67 67 67 68 68 68 67 66 67 68 69 69 69 69 68 69 69 69 69 68 68 68 67 68 68 67 68 68 68 68 68 68 69 69 69 70 70 69 68 67 68 67 66 64 65 65 68 65
4 4 5 4 0 -1 -2 -1 -1 0 1 1 3 5 -0 -3 -3 -1 1 -1 15 24 36 54 57 55 54 59 60 61 62 63 62 63 65 66 66 66 66 67 67 67 65 68 65 66 68 67 67 67 67 67 68 68 68 68 67 67 67 68 68 68 68 69 68 68 68 68 69 69 69 69 68 68 67 67 69 67 66 68 69 68 70 70 69 69 69 67 67 66 66 67 68 64 66 64 64
5 3 3 1 -0 -3 -3 -2 -2 0 0 0 1 6 -1 -4 -7 -5 -1 -1 14 22 52 52 54 56 56 56 58 58 60 63 65 64 65 65 65 65 65 67 67 67 65 66 66 65 67 67 68 67 67 67 68 68 68 68 67 68 68 68 68 67 67 67 68 68 67 68 69 68 67 67 67 68 68 68 68 67 67 68 69 69 68 68 69 69 68 67 67 67 67 67 66 63 63 64 64
7 4 10 3 0 -3 -4 -2 0 3 -2 -1 0 -0 -1 -6 -8 -8 -6 -3 12 18 48 53 53 54 54 56 58 58 59 62 62 61 62 63 64 64 66 67 67 66 64 64 67 67 67 67 68 68 67 67 68 68 68 68 69 68 68 68 67 68 67 67 69 68 68 67 68 68 67 69 66 66 68 67 66 67 67 69 71 67 68 69 72 69 68 68 67 66 67 65 65 66 63 63 63
7 4 7 2 3 0 -4 1 4 5 0 3 5 2 -1 -4 -5 -10 -9 0 13 16 49 48 51 53 54 54 55 57 59 59 60 60 62 63 62 62 67 67 67 67 66 65 67 67 67 67 68 68 68 68 68 68 67 67 67 67 67 68 68 68 68 67 68 67 68 69 68 69 68 68 68 66 68 68 67 68 68 67 69 67 69 70 68 68 68 67 69 68 67 69 66 67 65 64 62
11 11 11 4 1 3 -6 3 5 2 0 2 2 2 0 -3 -6 1 7 11 13 17 48 47 49 49 49 52 55 57 55 57 60 61 61 63 63 62 65 67 66 66 66 65 66 68 68 68 68 68 68 68 68 68 68 68 68 67 67 67 68 67 68 68 68 68 68 67 68 67 67 68 68 67 66 67 67 68 68 69 70 68 68 70 69 67 67 67 69 67 66 65 66 64 66 65 64
6 7 7 7 7 3 2 0 4 6 5 2 -0 -3 -1 1 -2 -4 11 12 17 18 48 46 47 47 49 50 54 54 54 55 58 61 60 62 61 63 63 66 65 66 66 66 67 67 66 67 68 68 67 67 68 68 67 66 66 65 65 66 66 66 67 66 67 67 67 67 67 67 67 68 68 66 66 66 68 69 68 69 69 69 70 69 68 66 66 67 68 66 66 65 65 63 63 64 64
6 3 1 5 6 5 4 2 4 4 4 5 5 3 -1 1 2 3 2 12 15 16 45 42 46 46 46 46 49 51 53 55 58 56 57 60 59 62 64 64 65 65 65 65 65 66 67 67 66 67 67 67 67 66 66 65 65 65 65 65 65 66 66 67 66 67 67 68 67 67 67 68 67 67 67 66 67 69 68 68 69 69 68 67 66 68 68 66 67 67 66 68 64 64 66 63 63
6 10 7 8 3 2 3 4 6 5 17 6 8 2 2 3 6 5 6 6 5 13 40 45 44 43 44 46 47 49 54 59 57 57 60 59 58 63 65 64 64 64 64 65 65 65 66 66 66 66 67 66 67 66 66 65 65 65 65 64 65 66 66 66 65 67 67 67 67 67 68 66 66 66 65 65 67 67 67 67 68 68 69 67 69 69 67 66 67 66 66 65 64 63 62 64 64
13 15 12 11 8 5 1 2 2 1 9 10 6 5 3 6 4 3 7 5 13 19 21 44 43 42 42 48 55 56 56 57 56 57 58 58 59 62 62 64 64 64 64 65 65 66 66 66 67 66 67 66 67 66 66 66 67 68 67 66 66 66 67 68 67 67 67 67 67 67 67 67 66 65 66 65 66 67 67 68 67 69 67 67 67 67 66 66 66 66 65 64 63 63 63 64 65
16 19 17 14 9 4 2 6 5 6 8 8 11 7 7 9 9 9 8 4 9 5 6 39 46 44 42 51 52 55 56 55 54 54 56 58 58 60 61 63 63 64 64 65 65 66 65 65 66 65 66 65 66 66 65 66 67 67 67 67 67 67 66 66 67 68 67 66 66 67 67 66 65 65 64 64 65 65 67 67 68 69 68 68 68 68 66 66 67 67 65 64 65 62 63 62 63
24 22 16 11 7 3 3 5 6 9 10 17 12 14 10 10 9 9 10 7 4 4 5 8 17 28 42 51 54 52 55 54 53 55 58 60 59 59 61 62 64 64 64 65 65 65 64 65 66 65 65 66 66 66 66 66 66 66 67 66 66 66 66 65 65 66 66 66 66 66 66 65 64 63 64 62 61 64 65 66 67 67 69 68 67 66 67 65 65 65 65 65 64 64 61 65 63
21 22 15 10 9 7 5 7 8 10 12 14 12 11 11 11 6 5 7 9 8 7 9 4 11 19 17 50 51 52 54 55 56 57 58 60 60 60 61 62 63 63 64 65 65 65 65 65 64 65 66 67 65 66 66 66 66 66 65 64 63 63 63 64 63 64 64 64 64 66 64 64 64 64 64 64 61 63 66 66 67 66 68 70 68 68 64 64 64 63 64 67 63 65 63 62 62
18 13 12 9 7 9 8 7 9 5 4 11 14 9 11 10 6 6 7 5 6 11 13 6 9 12 11 44 47 51 53 55 57 58 57 59 60 60 60 62 63 63 63 63 64 64 64 64 64 65 65 65 65 66 66 66 65 66 65 64 63 62 62 64 65 66 65 64 65 65 64 65 62 64 65 63 65 64 66 66 66 66 67 67 67 68 66 66 63 60 63 64 64 64 64 63 62
11 11 10 10 9 8 7 6 8 9 8 10 5 3 6 4 8 10 10 8 4 7 8 12 6 13 12 20 47 49 49 54 57 58 58 59 60 61 61 61 60 61 61 62 62 62 61 63 63 64 65 65 66 66 66 66 64 65 65 65 64 63 63 63 65 65 66 66 65 65 64 64 64 62 67 62 64 64 65 65 65 66 65 64 64 68 67 67 65 63 65 64 65 67 64 63 62
10 8 6 7 6 6 -0 -1 9 12 11 6 6 3 6 7 11 11 11 5 7 7 10 10 9 12 19 21 36 44 48 53 57 58 59 60 61 59 60 61 62 61 61 61 61 60 61 64 64 64 63 63 63 65 65 65 64 64 64 65 64 64 64 64 64 64 65 65 64 64 64 60 63 62 62 64 64 63 65 66 66 65 65 65 62 65 67 63 66 65 65 65 67 65 65 65 63
10 10 8 4 2 7 9 10 6 9 9 9 7 8 4 4 13 11 9 6 8 13 11 10 34 29 18 14 23 45 51 52 56 56 58 60 60 60 61 60 60 60 60 60 60 61 63 64 63 63 62 63 63 64 65 65 65 65 65 65 64 64 64 64 64 64 63 64 63 64 64 63 62 65 66 62 65 62 64 65 64 64 66 65 64 63 64 66 66 66 66 66 65 65 65 65 64
9 8 6 7 7 12 13 11 9 10 9 6 5 6 3 3 9 10 18 29 38 26 21 38 38 39 38 40 31 46 43 50 51 53 56 58 60 60 59 59 60 60 60 61 61 61 62 63 63 63 63 63 63 63 64 65 65 65 64 64 63 63 64 63 63 63 63 63 62 62 64 64 63 64 66 66 65 62 66 65 64 63 67 68 64 62 64 65 67 66 66 66 65 65 64 64 65
11 9 9 9 12 13 14 14 10 9 10 7 4 4 5 6 12 9 29 24 36 36 35 39 40 41 40 42 38 41 44 49 52 51 56 59 58 58 59 59 60 60 61 61 61 61 61 62 63 63 63 63 63 63 64 64 64 64 64 64 64 64 64 63 62 62 61 61 63 62 65 63 64 64 65 65 65 65 66 66 65 64 64 67 66 64 64 64 66 66 66 66 65 65 65 64 64
12 10 10 14 9 10 7 6 9 7 8 8 4 3 2 5 12 32 31 30 32 40 38 40 42 44 46 43 42 43 44 50 52 51 57 58 58 58 58 59 60 60 60 61 61 61 61 61 62 62 63 63 63 64 63 64 64 64 64 64 65 65 64 63 63 62 61 61 61 62 62 62 62 62 64 63 65 65 65 64 65 65 64 67 65 63 63 64 67 67 65 65 65 64 64 64 64
9 10 12 10 7 6 10 7 10 8 9 7 8 10 8 11 36 39 41 42 43 42 46 46 48 49 50 48 50 53 53 55 57 58 59 58 58 58 58 58 58 60 61 61 61 61 61 61 61 62 63 64 63 64 63 63 63 64 64 64 65 64 63 63 63 62 61 62 61 62 61 62 62 62 63 62 64 63 64 64 65 64 64 64 65 64 63 63 66 64 64 66 64 65 65 64 64
9 10 8 11 9 7 11 7 12 13 14 24 19 10 9 7 37 38 40 40 43 46 47 48 50 50 52 52 52 53 54 54 54 56 56 57 58 58 58 58 59 59 60 61 61 61 62 62 61 61 62 63 64 63 63 63 63 64 64 65 65 65 63 62 62 62 61 61 61 61 62 63 63 60 63 63 63 65 64 65 65 64 64 64 64 64 64 64 63 61 63 64 66 66 65 64 64
12 12 10 8 12 10 6 16 15 16 18 17 19 20 28 32 40 39 39 39 42 46 48 50 50 51 52 51 53 52 53 54 54 54 56 57 58 58 59 60 60 59 59 61 61 62 62 61 61 61 62 62 64 63 62 63 63 64 64 64 65 64 63 63 62 62 62 63 61 61 63 63 63 63 62 63 63 64 63 63 63 64 64 64 64 64 64 63 64 63 63 64 65 63 65 64 64
11 8 9 5 6 3 16 19 20 22 19 16 20 21 27 36 37 40 40 41 41 44 46 48 50 51 52 53 53 54 55 53 55 55 56 57 57 60 59 60 60 60 60 61 61 62 62 61 61 61 61 62 63 63 63 63 63 63 64 64 65 64 64 63 62 62 63 63 63 62 64 63 63 63 63 63 63 63 64 63 63 62 64 64 64 64 63 63 63 62 62 62 62 64 64 62 63
8 10 5 5 3 6 16 10 16 15 12 16 17 14 31 30 31 38 41 41 43 45 46 48 50 50 51 51 51 52 54 53 53 56 57 57 58 58 59 60 62 61 60 61 61 62 63 63 61 61 61 61 63 63 63 63 63 63 64 64 64 64 63 63 63 62 63 63 63 63 63 63 62 62 62 62 63 63 63 62 61 63 63 64 63 63 59 61 63 62 62 62 62 63 64 63 63
6 11 17 10 12 10 14 16 13 15 15 13 13 12 18 22 31 35 40 42 44 46 46 47 50 51 51 52 52 53 54 55 55 55 56 57 57 58 58 58 60 60 62 61 61 62 62 63 63 61 61 62 63 62 63 63 63 63 63 63 64 63 64 63 62 62 62 61 61 62 61 63 62 63 61 62 63 61 63 62 60 61 62 63 63 63 61 60 61 61 62 62 62 62 61 62 63
8 8 10 11 14 19 12 13 11 16 14 16 13 13 31 37 37 41 43 44 45 45 47 48 50 52 53 53 53 53 53 54 56 57 57 57 58 58 59 59 59 60 61 61 62 63 62 62 62 64 62 62 63 62 63 63 63 63 64 64 63 62 63 62 62 61 61 60 59 61 61 62 63 61 62 61 61 59 62 59 59 60 60 61 61 60 60 61 61 61 61 58 59 60 58 59 59
8 9 10 11 22 17 15 25 14 15 15 14 17 15 32 39 41 43 45 45 47 47 48 49 51 51 53 54 55 56 56 56 56 56 57 57 58 58 58 59 59 59 60 61 62 61 61 62 63 64 63 61 62 62 62 64 64 63 64 63 62 63 63 62 61 61 60 60 59 60 61 62 61 62 61 61 62 58 58 58 57 57 57 60 61 60 62 60 60 60 60 59 57 56 55 58 59
8 9 10 8 12 12 13 16 16 17 19 18 15 18 34 40 43 44 45 46 47 47 49 50 50 50 50 52 54 55 55 57 57 57 58 57 57 57 58 60 59 58 60 60 61 61 62 61 61 62 62 62 62 63 62 64 64 63 63 63 62 63 62 61 61 61 60 59 60 61 62 60 61 61 60 58 58 59 58 58 55 53 57 57 59 59 60 60 58 58 59 59 59 57 55 56 58